Location: La Oliva
(42.2466°N, 2.9955°E)
Time: 11:34:20
(UTC+00:00)

Cosmos 1633 - Pass Details

Date: 22 April 2021
Orbit: 461 x 478 km, 82.5° (Epoch: 10 May)

Event Time Altitude Azimuth Distance (km) Brightness Sun altitude
Rises 20:36:52 0° 346° (NNW) 2,529 7.1 -20.1°
Reaches altitude 10° 20:39:00 10° 342° (NNW) 1,643 6.1 -20.4°
Maximum altitude 20:42:29 50° 266° (W) 604 3.2 -20.9°
Enters shadow 20:43:23 39° 219° (SW) 722 3.3 -21.0°
